Date String (YYYY-MM-DD hh:mm:ss) UTC,Instrument flags,Ambient pressure (hPa),Sample flow (lpm),Bypass flow (lpm),Sample temperature (°C),Ambient temperature (°C),ASC tube jacket temperature (°C),LED temperature (°C),Box temperature (°C),Sample RH (%),Span deviation,Mass concentration (μg/m³),Mass concentration (μg/m³),Mass concentration (μg/m³)
DateTimeUTC,F1_M11,P_M11,Q1_M11,Q2_M11,T1_M11,T2_M11,T3_M11,T4_M11,T5_M11,U1_M11,ZSPAN_M11,X0_M11,X2_M11,X1_M11
2022-05-09 07:00:00,,0808.6,5.00,0.00,29.0,28.2,00.0,38.0,30.8,20.4,0000.0,0014.17,0006.08,0003.43
2022-05-09 07:01:00,,0808.6,5.01,0.00,29.0,28.2,00.0,38.0,30.8,20.4,0000.0,0014.19,0006.06,0003.42
2022-05-09 07:02:00,,0808.6,5.01,0.00,29.0,28.2,00.0,38.0,30.7,20.4,0000.0,0014.29,0006.10,0003.43
2022-05-09 07:03:00,,0808.6,5.01,0.00,29.0,28.2,00.0,38.0,30.7,20.5,0000.0,0014.05,0006.07,0003.44
2022-05-09 07:04:00,,0808.6,5.00,0.00,29.0,28.2,00.0,38.0,30.8,20.5,0000.0,0014.23,0006.09,0003.43
2022-05-09 07:05:00,,0808.6,5.00,0.00,29.0,28.2,00.0,38.0,30.8,20.5,0000.0,0013.81,0006.09,0003.42
2022-05-09 07:06:00,,0808.6,4.99,0.00,29.0,28.2,00.0,38.0,30.8,20.5,0000.0,0013.70,0006.07,0003.43
2022-05-09 07:07:00,,0808.7,5.00,0.00,29.0,28.2,00.0,38.0,30.7,20.5,0000.0,0013.68,0006.03,0003.42
2022-05-09 07:08:00,,0808.7,5.00,0.00,28.9,28.2,00.0,38.0,30.7,20.5,0000.0,0013.82,0006.08,0003.43
2022-05-09 07:09:00,,0808.7,5.01,0.00,28.9,28.1,00.0,38.0,30.7,20.4,0000.0,0013.69,0006.03,0003.42
2022-05-09 07:10:00,,0808.7,5.00,0.00,28.9,28.1,00.0,37.9,30.6,20.4,0000.0,0013.52,0006.00,0003.42
2022-05-09 07:11:00,,0808.6,5.00,0.00,28.9,28.0,00.0,37.9,30.6,20.4,0000.0,0013.42,0005.96,0003.40
2022-05-09 07:12:00,,0808.6,5.00,0.00,28.8,28.0,00.0,37.9,30.6,20.4,0000.0,0013.25,0005.92,0003.41
2022-05-09 07:13:00,,0808.5,4.99,0.00,28.8,28.0,00.0,37.9,30.6,20.4,0000.0,0013.01,0005.81,0003.42
2022-05-09 07:14:00,,0808.5,5.00,0.00,28.8,28.0,00.0,37.9,30.6,20.4,0000.0,0012.99,0005.75,0003.42
2022-05-09 07:15:00,,0808.7,5.00,0.00,28.8,27.9,00.0,37.9,30.6,20.4,0000.0,0013.31,0005.76,0003.42
2022-05-09 07:16:00,,0808.7,5.00,0.00,28.8,27.9,00.0,37.9,30.6,20.4,0000.0,0013.49,0005.78,0003.42
2022-05-09 07:17:00,,0808.7,5.01,0.00,28.8,27.9,00.0,37.9,30.5,20.4,0000.0,0013.30,0005.73,0003.43
2022-05-09 07:18:00,,0808.7,5.00,0.00,28.8,27.9,00.0,37.8,30.5,20.4,0000.0,0013.01,0005.69,0003.44
2022-05-09 07:19:00,,0808.6,5.00,0.00,28.7,27.9,00.0,37.8,30.5,20.4,0000.0,0012.81,0005.65,0003.44
2022-05-09 07:20:00,,0808.6,5.00,0.00,28.7,27.8,00.0,37.8,30.4,20.5,0000.0,0012.52,0005.56,0003.43
2022-05-09 07:21:00,,0808.6,4.99,0.00,28.7,27.9,00.0,37.8,30.5,20.6,0000.0,0012.32,0005.50,0003.43
2022-05-09 07:22:00,,0808.6,5.00,0.00,28.7,27.9,00.0,37.8,30.5,20.6,0000.0,0012.71,0005.60,0003.44
2022-05-09 07:23:00,,0808.6,5.01,0.00,28.7,27.9,00.0,37.8,30.5,20.5,0000.0,0012.84,0005.64,0003.44
2022-05-09 07:24:00,,0808.7,5.01,0.00,28.7,27.9,00.0,37.8,30.5,20.5,0000.0,0012.90,0005.67,0003.45
2022-05-09 07:25:00,,0808.6,5.00,0.00,28.7,27.9,00.0,37.8,30.5,20.5,0000.0,0012.96,0005.72,0003.45
2022-05-09 07:26:00,,0808.6,5.00,0.00,28.7,27.9,00.0,37.7,30.5,20.5,0000.0,0012.71,0005.75,0003.46
2022-05-09 07:27:00,,0808.6,5.00,0.00,28.7,27.8,00.0,37.7,30.4,20.5,0000.0,0012.73,0005.83,0003.48
2022-05-09 07:28:00,,0808.6,5.01,0.00,28.7,27.8,00.0,37.7,30.4,20.5,0000.0,0012.98,0005.89,0003.49
2022-05-09 07:29:00,,0808.7,5.00,0.00,28.6,27.7,00.0,37.7,30.4,20.5,0000.0,0013.01,0005.92,0003.48
2022-05-09 07:30:00,,0808.7,5.02,0.00,28.6,27.6,00.0,37.7,30.4,20.6,0000.0,0012.86,0005.89,0003.50
2022-05-09 07:31:00,,0808.7,5.01,0.00,28.6,27.6,00.0,37.7,30.3,20.7,0000.0,0013.10,0005.88,0003.51
2022-05-09 07:32:00,,0808.7,5.01,0.00,28.6,27.7,00.0,37.7,30.3,20.7,0000.0,0013.50,0005.90,0003.53
2022-05-09 07:33:00,,0808.6,4.99,0.00,28.6,27.7,00.0,37.6,30.4,20.6,0000.0,0013.15,0005.83,0003.55
2022-05-09 07:34:00,,0808.5,5.00,0.00,28.6,27.8,00.0,37.6,30.4,20.6,0000.0,0013.31,0005.86,0003.56
2022-05-09 07:35:00,,0808.4,5.00,0.00,28.6,27.8,00.0,37.6,30.4,20.6,0000.0,0013.30,0005.84,0003.56
2022-05-09 07:36:00,,0808.4,5.00,0.00,28.6,27.8,00.0,37.6,30.4,20.5,0000.0,0013.43,0005.83,0003.60
2022-05-09 07:37:00,,0808.5,5.00,0.00,28.6,27.9,00.0,37.6,30.4,20.5,0000.0,0013.69,0005.76,0003.65
2022-05-09 07:38:00,,0808.5,5.00,0.00,28.6,27.9,00.0,37.6,30.4,20.6,0000.0,0014.46,0005.71,0003.68
2022-05-09 07:39:00,,0808.5,5.00,0.00,28.6,27.8,00.0,37.6,30.3,20.6,0000.0,0014.80,0005.69,0003.71
2022-05-09 07:40:00,,0808.5,5.01,0.00,28.6,27.8,00.0,37.6,30.3,20.6,0000.0,0014.73,0005.67,0003.75
2022-05-09 07:41:00,,0808.5,5.01,0.00,28.5,27.7,00.0,37.6,30.3,20.7,0000.0,0014.97,0005.74,0003.77
2022-05-09 07:42:00,,0808.5,5.00,0.00,28.5,27.7,00.0,37.6,30.3,20.7,0000.0,0014.81,0005.79,0003.81
2022-05-09 07:43:00,,0808.4,5.01,0.00,28.5,27.7,00.0,37.6,30.3,20.7,0000.0,0014.71,0005.79,0003.84
2022-05-09 07:44:00,,0808.4,5.00,0.00,28.5,27.6,00.0,37.6,30.3,20.7,0000.0,0014.92,0005.85,0003.88
2022-05-09 07:45:00,,0808.5,5.01,0.00,28.5,27.6,00.0,37.5,30.3,20.7,0000.0,0015.17,0005.85,0003.93
2022-05-09 07:46:00,,0808.5,4.99,0.00,28.5,27.6,00.0,37.5,30.2,20.7,0000.0,0015.44,0005.93,0003.99
2022-05-09 07:47:00,,0808.5,4.99,0.00,28.5,27.5,00.0,37.5,30.2,20.8,0000.0,0015.14,0005.93,0004.01
2022-05-09 07:48:00,,0808.4,5.00,0.00,28.4,27.5,00.0,37.5,30.2,20.8,0000.0,0014.64,0005.98,0004.02
2022-05-09 07:49:00,,0808.4,4.99,0.00,28.4,27.5,00.0,37.5,30.1,20.9,0000.0,0013.87,0005.98,0004.04
2022-05-09 07:50:00,,0808.5,5.00,0.00,28.4,27.6,00.0,37.5,30.1,20.9,0000.0,0014.28,0006.06,0004.08
2022-05-09 07:51:00,,0808.5,5.00,0.00,28.4,27.6,00.0,37.5,30.1,20.9,0000.0,0014.58,0006.12,0004.12
2022-05-09 07:52:00,,0808.5,5.00,0.00,28.4,27.6,00.0,37.4,30.1,20.9,0000.0,0014.38,0006.09,0004.16
2022-05-09 07:53:00,,0808.4,5.00,0.00,28.4,27.6,00.0,37.4,30.1,20.9,0000.0,0014.30,0006.12,0004.19
2022-05-09 07:54:00,,0808.4,5.00,0.00,28.4,27.5,00.0,37.4,30.1,20.9,0000.0,0013.92,0006.16,0004.23
2022-05-09 07:55:00,,0808.4,4.99,0.00,28.3,27.5,00.0,37.4,30.1,21.0,0000.0,0013.72,0006.13,0004.25
2022-05-09 07:56:00,,0808.4,5.00,0.00,28.3,27.5,00.0,37.4,30.1,21.0,0000.0,0013.20,0006.12,0004.27
2022-05-09 07:57:00,,0808.4,5.00,0.00,28.3,27.5,00.0,37.4,30.1,21.1,0000.0,0013.09,0006.11,0004.28
2022-05-09 07:58:00,,0808.4,4.99,0.00,28.3,27.5,00.0,37.4,30.1,21.1,0000.0,0013.13,0006.11,0004.31
2022-05-09 07:59:00,,0808.3,5.00,0.00,28.3,27.4,00.0,37.4,30.0,21.1,0000.0,0013.18,0006.12,0004.34
